Home   Weather   Gothenburg   Past weeks

Flag for Sweden Past Weather in Gothenburg, Sweden — Yesterday and Last 2 Weeks

Now
61 °F

Sunny.


Feels Like: 61 °F
Forecast: 55 / 67 °F
Wind: 10 mph from East

Location: Gothenburg / Landvetter

Current Time: Sep 26, 2017 at 6:38:47 pm

Latest Report: Sep 26, 2017 at 6:20 pm


Visibility: 10 mi

Pressure: 30.48 "Hg

Humidity: 72%

Dew Point: 52 °F

Location of GothenburgLocation

Past Weather in Gothenburg — Graph

°F

Gothenburg Temperature Yesterday

Maximum temperature yesterday: 64 °F (at 2:20 pm)
Minimum temperature yesterday: 50 °F (at 5:50 am)
Average temperature yesterday: 57 °F

High & Low Weather Summary for the Past Weeks

 TemperatureHumidityPressure
High64 °F (Sep 25, 2:20 pm)100% (Sep 12, 1:50 am)30.51 "Hg (Sep 12, 1:50 am)
Low39 °F (Sep 18, 5:20 am)64% (Sep 25, 1:20 pm)29.00 "Hg (Sep 13, 8:50 pm)
Average52 °F91%29.89 "Hg
* Reported Sep 11 5:20 pm — Sep 26 5:20 pm, Gothenburg. Weather by CustomWeather, © 2017

Note: Actual official high and low records may vary slightly from our data, if they occured in-between our weather recording intervals... More about our weather records

Advertising

Gothenburg Weather History for the Previous 24 Hours

Scroll right to see more
 ConditionsComfort  
Time TempWeatherWind HumidityBarometerVisibility
5:20 pm
Tue, Sep 26
63 °FScattered clouds.9 mph68%30.48 "HgN/A
4:50 pm63 °FScattered clouds.9 mph68%30.48 "HgN/A
4:20 pm61 °FScattered clouds.10 mph72%30.48 "HgN/A
3:50 pm64 °FPassing clouds.9 mph64%30.48 "HgN/A
3:20 pm63 °FScattered clouds.10 mph68%30.48 "HgN/A
2:50 pm61 °FPartly sunny.12 mph72%30.48 "HgN/A
2:20 pm61 °FScattered clouds.10 mph72%30.51 "HgN/A
1:50 pm61 °FMore clouds than sun.12 mph72%30.51 "HgN/A
1:20 pm59 °FPartly sunny.13 mph77%30.51 "HgN/A
12:50 pm61 °FScattered clouds.14 mph72%30.51 "HgN/A
12:20 pm61 °FScattered clouds.16 mph72%30.51 "HgN/A
11:50 am59 °FPartly sunny.15 mph77%30.51 "HgN/A
11:20 am59 °FScattered clouds.13 mph77%30.48 "HgN/A
10:50 am57 °FScattered clouds.12 mph82%30.48 "HgN/A
10:20 am55 °FScattered clouds.9 mph88%30.48 "HgN/A
9:50 am54 °FBroken clouds.8 mph94%30.48 "HgN/A
8:50 am52 °FScattered clouds.8 mph100%30.48 "HgN/A
8:20 am52 °FScattered clouds.8 mph94%30.48 "HgN/A
7:50 am50 °FScattered clouds.8 mph100%30.48 "HgN/A
7:20 am50 °FSunny.8 mph100%30.48 "Hg10 mi
6:50 am50 °FClear.8 mph94%30.45 "Hg10 mi
6:20 am50 °FClear.7 mph100%30.45 "Hg10 mi
5:50 am50 °FClear.8 mph94%30.45 "Hg10 mi
5:20 am52 °FClear.8 mph94%30.45 "Hg10 mi
4:50 am52 °FClear.9 mph88%30.45 "Hg10 mi
4:20 am52 °FClear.12 mph88%30.45 "Hg10 mi
3:50 am52 °FClear.13 mph88%30.45 "Hg10 mi
3:20 am50 °FClear.13 mph94%30.45 "Hg10 mi
2:50 am52 °FClear.12 mph88%30.45 "Hg10 mi
2:20 am52 °FClear.10 mph88%30.45 "Hg10 mi
1:50 am54 °FClear.10 mph82%30.45 "Hg10 mi
1:20 am54 °FClear.13 mph82%30.45 "Hg10 mi
12:50 am54 °FClear.12 mph82%30.45 "Hg10 mi
12:20 am54 °FClear.10 mph82%30.45 "Hg10 mi
11:50 pm
Mon, Sep 25
54 °FClear.9 mph88%30.45 "Hg10 mi
11:20 pm54 °FClear.9 mph88%30.48 "Hg10 mi
10:50 pm54 °FClear.10 mph88%30.45 "Hg10 mi
10:20 pm54 °FClear.10 mph88%30.45 "Hg10 mi
9:50 pm54 °FClear.10 mph88%30.45 "Hg10 mi
9:20 pm55 °FClear.10 mph82%30.45 "Hg10 mi
8:50 pm55 °FClear.9 mph82%30.45 "Hg10 mi
8:20 pm57 °FClear.8 mph77%30.45 "Hg10 mi
7:50 pm57 °FClear.10 mph77%30.45 "Hg10 mi
7:20 pm59 °FClear.10 mph77%30.42 "Hg10 mi
6:50 pm61 °FSunny.9 mph72%30.42 "Hg10 mi
6:20 pm61 °FSunny.12 mph72%30.42 "Hg10 mi
Weather by CustomWeather, © 2017

See weather overviewHow to use our weather pages